S-NET C

Last updated on Tue Sep 15 2026 00:03:27 GMT+0000 (Coordinated Universal Time)

1 43189U 18014K 26257.19545971 .00003538 00000+0 18053-3 0 9990 2 43189 97.5287 161.7281 0011570 63.0640 297.1774 15.17331282470803
UTC large
Height (km)
Speed (km/s)
/
Latitude / Longitude
Inclination (degrees)
Orbital Period (minutes)
Azimuth
Elevation
Range (km)
Doppler Factor

Next 0 passes for location: London (51.5072 / 0.1276)

No passes found over London.
S-NET C